When you browse on this site, cookies collect data to enhance your experience and personalize the content and advertising you see.
Visit our Privacy Policy to learn more. By continuing to use the site, you agree to this use of cookies and data.
  • In Hungary
  • List of Countries
  • For 7 days
  • Water Temperature
  • Satellite Maps
  • Weather Map
  • News
  • Weather Widgets
  • user-avatar
    Login

    Hourly Weather Chidambaram

    Today, 21 November, Wednesday

    Time Temperature Precipitation Wind Pressure Humidity
    00:00 +26°C° 0.9 mm 8 mps 758 mmHg 89%
    01:00 +26°C° 0.9 mm 8 mps 757 mmHg 89%
    02:00 +26°C° 0.9 mm 8 mps 757 mmHg 88%
    03:00 +26°C° 0.7 mm 8 mps 757 mmHg 88%
    04:00 +26°C° 0.7 mm 8 mps 756 mmHg 87%
    05:00 +24°C° 0 mm 6 mps 757 mmHg 85%
    06:00 +26°C° 0.1 mm 7 mps 757 mmHg 81%
    07:00 +27°C° 0.1 mm 8 mps 757 mmHg 77%
    08:00 +28°C° 0.1 mm 8 mps 757 mmHg 72%
    09:00 +29°C° 0.3 mm 8 mps 757 mmHg 71%
    10:00 +29°C° 0.3 mm 8 mps 757 mmHg 70%
    11:00 +31°C° 0.3 mm 8 mps 757 mmHg 69%
    12:00 +31°C° 0.3 mm 8 mps 756 mmHg 69%
    13:00 +31°C° 0.3 mm 8 mps 756 mmHg 69%
    14:00 +32°C° 0.3 mm 8 mps 755 mmHg 69%
    15:00 +30°C° 0.1 mm 7 mps 755 mmHg 71%
    16:00 +29°C° 0.1 mm 7 mps 755 mmHg 74%
    17:00 +28°C° 0.1 mm 6 mps 755 mmHg 77%
    18:00 +28°C° 0.2 mm 6 mps 756 mmHg 78%
    19:00 +28°C° 0.2 mm 7 mps 756 mmHg 80%
    20:00 +27°C° 0.2 mm 7 mps 757 mmHg 81%
    21:00 +27°C° 0.1 mm 6 mps 757 mmHg 81%
    22:00 +27°C° 0.1 mm 6 mps 757 mmHg 81%
    23:00 +27°C° 0.1 mm 5 mps 757 mmHg 81%

    Tomorrow, 22 November, Thursday

    Time Temperature Precipitation Wind Pressure Humidity
    00:00 +27°C° 0.1 mm 5 mps 757 mmHg 81%
    01:00 +27°C° 0.1 mm 5 mps 756 mmHg 82%
    02:00 +27°C° 0.1 mm 5 mps 756 mmHg 82%
    03:00 +27°C° 0.4 mm 5 mps 756 mmHg 84%
    04:00 +27°C° 0.4 mm 4 mps 756 mmHg 86%
    05:00 +27°C° 0.4 mm 4 mps 757 mmHg 87%
    06:00 +27°C° 0.9 mm 4 mps 757 mmHg 86%
    07:00 +28°C° 0.9 mm 4 mps 758 mmHg 85%
    08:00 +28°C° 0.9 mm 4 mps 759 mmHg 83%
    09:00 +29°C° 1.5 mm 4 mps 759 mmHg 80%
    10:00 +30°C° 1.5 mm 4 mps 759 mmHg 76%
    11:00 +32°C° 1.5 mm 4 mps 759 mmHg 72%
    12:00 +32°C° 1.2 mm 4 mps 758 mmHg 72%
    13:00 +32°C° 1.2 mm 4 mps 758 mmHg 73%
    14:00 +32°C° 1.2 mm 4 mps 757 mmHg 73%
    15:00 +30°C° 0.5 mm 4 mps 757 mmHg 77%
    16:00 +29°C° 0.5 mm 4 mps 757 mmHg 81%
    17:00 +28°C° 0.5 mm 4 mps 757 mmHg 86%
    18:00 +28°C° 0.4 mm 4 mps 758 mmHg 87%
    19:00 +28°C° 0.4 mm 4 mps 759 mmHg 88%
    20:00 +27°C° 0.4 mm 4 mps 759 mmHg 89%
    21:00 +27°C° 1.2 mm 4 mps 759 mmHg 90%
    22:00 +27°C° 1.2 mm 4 mps 760 mmHg 90%
    23:00 +27°C° 1.2 mm 5 mps 760 mmHg 91%

    Day after tomorrow, 23 November, Friday

    Time Temperature Precipitation Wind Pressure Humidity
    00:00 +27°C° 1.9 mm 4 mps 759 mmHg 91%
    01:00 +27°C° 1.9 mm 4 mps 759 mmHg 91%
    02:00 +26°C° 1.9 mm 4 mps 759 mmHg 92%
    03:00 +27°C° 3 mm 4 mps 759 mmHg 91%
    04:00 +27°C° 3 mm 4 mps 759 mmHg 91%
    05:00 +27°C° 3 mm 4 mps 759 mmHg 91%
    06:00 +27°C° 2.8 mm 4 mps 759 mmHg 88%
    07:00 +28°C° 2.8 mm 4 mps 760 mmHg 86%
    08:00 +29°C° 2.8 mm 4 mps 761 mmHg 83%
    09:00 +29°C° 3.3 mm 5 mps 761 mmHg 81%
    10:00 +30°C° 3.3 mm 5 mps 760 mmHg 79%
    11:00 +30°C° 3.3 mm 5 mps 760 mmHg 77%
    12:00 +30°C° 2.3 mm 5 mps 760 mmHg 77%
    13:00 +30°C° 2.3 mm 5 mps 759 mmHg 77%
    14:00 +30°C° 2.3 mm 5 mps 758 mmHg 77%
    15:00 +29°C° 1.2 mm 5 mps 758 mmHg 81%
    16:00 +29°C° 1.2 mm 4 mps 758 mmHg 84%
    17:00 +28°C° 1.2 mm 4 mps 758 mmHg 87%
    18:00 +28°C° 1.4 mm 4 mps 759 mmHg 88%
    19:00 +27°C° 1.4 mm 4 mps 760 mmHg 89%
    20:00 +27°C° 1.4 mm 4 mps 761 mmHg 90%
    21:00 +27°C° 1.5 mm 4 mps 761 mmHg 91%
    22:00 +27°C° 1.5 mm 4 mps 761 mmHg 91%
    23:00 +26°C° 1.5 mm 4 mps 761 mmHg 92%

    24 November, Saturday

    Time Temperature Precipitation Wind Pressure Humidity
    00:00 +26°C° 1 mm 4 mps 760 mmHg 92%
    01:00 +26°C° 1 mm 4 mps 760 mmHg 93%
    02:00 +26°C° 1 mm 4 mps 759 mmHg 94%
    03:00 +26°C° 0.5 mm 4 mps 759 mmHg 94%
    04:00 +26°C° 0.5 mm 4 mps 759 mmHg 94%
    05:00 +25°C° 0.5 mm 4 mps 760 mmHg 95%
    06:00 +26°C° 0.3 mm 4 mps 760 mmHg 91%
    07:00 +27°C° 0.3 mm 4 mps 761 mmHg 87%
    08:00 +29°C° 0.3 mm 4 mps 762 mmHg 83%
    09:00 +30°C° 0.3 mm 5 mps 761 mmHg 79%
    10:00 +32°C° 0.3 mm 5 mps 761 mmHg 74%
    11:00 +33°C° 0.3 mm 5 mps 761 mmHg 69%
    12:00 +33°C° 0.3 mm 5 mps 760 mmHg 67%
    13:00 +33°C° 0.3 mm 5 mps 759 mmHg 65%
    14:00 +33°C° 0.3 mm 5 mps 758 mmHg 63%
    15:00 +32°C° 0 mm 5 mps 759 mmHg 67%
    16:00 +30°C° 0 mm 5 mps 759 mmHg 72%
    17:00 +29°C° 0 mm 5 mps 759 mmHg 77%
    18:00 +28°C° 0 mm 5 mps 760 mmHg 79%
    19:00 +27°C° 0 mm 5 mps 760 mmHg 82%
    20:00 +27°C° 0 mm 4 mps 761 mmHg 84%
    21:00 +27°C° 0 mm 4 mps 761 mmHg 85%
    22:00 +26°C° 0 mm 4 mps 761 mmHg 86%
    23:00 +26°C° 0 mm 4 mps 761 mmHg 88%

    25 November, Sunday

    Time Temperature Precipitation Wind Pressure Humidity
    00:00 +26°C° 0 mm 3 mps 760 mmHg 89%
    01:00 +26°C° 0 mm 3 mps 760 mmHg 90%
    02:00 +26°C° 0 mm 3 mps 759 mmHg 91%
    03:00 +25°C° 0 mm 3 mps 759 mmHg 91%
    04:00 +25°C° 0 mm 3 mps 760 mmHg 92%
    05:00 +25°C° 0 mm 3 mps 760 mmHg 92%
    06:00 +26°C° 0 mm 3 mps 760 mmHg 88%
    07:00 +27°C° 0 mm 3 mps 761 mmHg 84%
    08:00 +28°C° 0 mm 3 mps 761 mmHg 79%
    09:00 +30°C° 0 mm 3 mps 761 mmHg 74%
    10:00 +31°C° 0 mm 3 mps 761 mmHg 68%
    11:00 +33°C° 0 mm 3 mps 760 mmHg 62%
    12:00 +33°C° 0 mm 4 mps 759 mmHg 61%
    13:00 +33°C° 0 mm 4 mps 758 mmHg 59%
    14:00 +34°C° 0 mm 4 mps 758 mmHg 57%
    15:00 +32°C° 0 mm 4 mps 758 mmHg 63%
    16:00 +30°C° 0 mm 4 mps 758 mmHg 69%
    17:00 +29°C° 0 mm 4 mps 758 mmHg 74%
    18:00 +28°C° 0 mm 4 mps 759 mmHg 76%
    19:00 +28°C° 0 mm 4 mps 759 mmHg 78%
    20:00 +27°C° 0 mm 4 mps 760 mmHg 79%
    21:00 +27°C° 0 mm 4 mps 760 mmHg 80%
    22:00 +27°C° 0 mm 3 mps 760 mmHg 81%
    23:00 +27°C° 0 mm 3 mps 760 mmHg 82%

    26 November, Monday

    Time Temperature Precipitation Wind Pressure Humidity
    00:00 +26°C° 0 mm 3 mps 759 mmHg 83%
    01:00 +26°C° 0 mm 3 mps 758 mmHg 84%
    02:00 +26°C° 0 mm 3 mps 758 mmHg 85%
    03:00 +26°C° 0 mm 3 mps 758 mmHg 86%
    04:00 +25°C° 0 mm 3 mps 758 mmHg 87%
    05:00 +25°C° 0 mm 3 mps 759 mmHg 88%
    06:00 +26°C° 0 mm 3 mps 759 mmHg 84%
    07:00 +27°C° 0 mm 3 mps 760 mmHg 80%
    08:00 +29°C° 0 mm 3 mps 760 mmHg 76%
    09:00 +30°C° 0 mm 3 mps 760 mmHg 70%
    10:00 +31°C° 0 mm 3 mps 760 mmHg 64%
    11:00 +33°C° 0 mm 4 mps 760 mmHg 59%
    12:00 +33°C° 0 mm 4 mps 759 mmHg 57%
    13:00 +33°C° 0 mm 4 mps 758 mmHg 56%
    14:00 +33°C° 0 mm 4 mps 757 mmHg 55%
    15:00 +32°C° 0 mm 4 mps 757 mmHg 61%
    16:00 +30°C° 0 mm 4 mps 758 mmHg 67%
    17:00 +28°C° 0 mm 4 mps 758 mmHg 73%
    18:00 +28°C° 0 mm 4 mps 758 mmHg 74%
    19:00 +27°C° 0 mm 4 mps 759 mmHg 74%
    20:00 +26°C° 0 mm 4 mps 760 mmHg 75%
    21:00 +26°C° 0 mm 4 mps 760 mmHg 76%
    22:00 +26°C° 0 mm 4 mps 759 mmHg 76%
    23:00 +26°C° 0 mm 4 mps 759 mmHg 77%
    Show more